sat.trackr.live / text

‹ back to catalog

ITUPSAT1

NORAD 35935 · 2009-051E

PAYLOAD ACTIVE UNKNOWN

§ Identity

Operator
Country
TURK
Launch date
2009-09-23
Launch site
SRILR
Launch vehicle
Mass (kg)
RCS (m²)
0.03

Purposes: comms, tech_demo

External: N2YO · Heavens-Above · Gunter

§ Orbital elements

Epoch: 2026-09-20T04:37:06.163680Z

Period
98.59 min
Inclination
98.3947°
Eccentricity
0.0006546
Mean motion
14.60556516 rev/d
Perigee alt
686.7 km
Apogee alt
696.0 km
Semi-major
7,069.5 km
B*
1.0381e-4
RAAN
171.2198°
Arg perigee
311.8089°
Mean anomaly
48.2551°
Rev number
90,260

§ Raw data

ITUPSAT11 35935U 09051E   26263.19243245  .00000456  00000+0  10381-3 0  99992 35935  98.3947 171.2198 0006546 311.8089  48.2551 14.60556516902608

JSON: /api/v1/satellites/35935 · /tle

For live sub-satellite position, see the globe view (requires WebGL).

§ Visibility from observer

Set your observer location to see the next 7 days of passes ≥ 10°. The values pass through the URL so the page stays shareable.

No JS? Fill the form by hand. The geolocation button needs JavaScript.

§ Radio — SatNOGS DB

ModeDescriptionDownlinkUplink
CW CW Beacon 437.325 MHz
GFSK GFSK Telemetry 437.325 MHz
GFSK GMSK Telemetry Drifted 437.323 MHz

3 transmitters · refreshed weekly from db.satnogs.org